Tracking 29892 objects as of 21-Nov-2024
HD Live streaming from Space Station
objects crossing your sky now

FENGYUN 1C DEB

Track FENGYUN 1C DEB now!
10-day predictions


NORAD ID: 30131
Int'l Code: 1999-025SL
Perigee: 783.2 km
Apogee: 912.5 km
Inclination: 99.1 °
Period: 101.7 minutes
Semi major axis: 7218 km
RCS: 0.058 m2 (small)
Launch date: May 10, 1999
Source: People's Republic of China (PRC)
Launch site: Taiyaun Space Center, China (TSC)

Note: This is SATELLITE DEBRIS
Your satellite tracking list
Your tracking list is empty




NASA's NSSDC Master Catalog

Two Line Element Set (TLE):
1 30131U 99025SL  24325.21288064  .00008848  00000-0  43761-2 0  9991
2 30131  99.0839  41.9953 0089613 179.9391 198.9876 14.15469449912046
Source of the keplerian elements: AFSPC